Regional Weather Roundup
Issued by NWS

Home | Current Version | Previous Version | Graphics & Text | Print | Product List | Glossary Off
Versions: 1 2 3 4 5 6 7 8 9 10 11 12 13 14 15 16 17 18 19 20 21 22 23 24 25 26 27 28 29 30 31 32 33 34 35 36 37 38 39 40 41 42 43 44 45 46 47 48 49 50

000
ASUS43 KTOP 271708
RWRKS

WEATHER ROUNDUP FOR KANSAS
NATIONAL WEATHER SERVICE GOODLAND KS
1200 PM CDT WED JUL 27 2016

NOTE:  "FAIR" INDICATES FEW OR NO CLOUDS BELOW 12,000 FEET WITH NO
SIGNIFICANT WEATHER AND/OR OBSTRUCTIONS TO VISIBILITY.

KSZ001>006-013>018-027>032-041>047-271800-
NORTHWEST KANSAS

CITY           SKY/WX    TMP DP  RH WIND       PRES   REMARKS
GOODLAND       MOSUNNY   77  65  66 CALM      30.14R
HAYS           CLOUDY    82  64  54 S7        30.05S
HILL CITY      SUNNY     83  65  54 W3        30.07R
RUSSELL        PTSUNNY   83  70  64 SW5       30.03R
$$

KSZ061>065-074>080-084>089-271800-
SOUTHWEST KANSAS

CITY           SKY/WX    TMP DP  RH WIND       PRES   REMARKS
DODGE CITY     CLOUDY    84  69  60 SW12      30.05R
ELKHART          N/A     86  67  53 S7          N/A
GARDEN CITY    SUNNY     84  71  65 S12       30.06R
GREAT BEND     CLOUDY    82  70  65 SE3       30.04S
LIBERAL        SUNNY     88  70  55 SE9       30.08F
PRATT          PTSUNNY   83  70  64 N5        30.03S
$$

KSZ066>073-081>083-090>101-271800-
SOUTHEAST KANSAS

CITY           SKY/WX    TMP DP  RH WIND       PRES   REMARKS
CHANUTE        MOSUNNY   86  74  67 CALM      29.98S
COFFEYVILLE    PTSUNNY   83  73  72 SE5       29.98R
HUTCHINSON     MOSUNNY   87  71  58 VRB3      30.03R
NEWTON         PTSUNNY   82  74  76 E3        30.03R
PARSONS        MOSUNNY   85  75  72 VRB5      29.99F
WICHITA INTL   PTSUNNY   86  72  62 VRB3      29.99S
WICHITA JABRA  PTSUNNY   83  74  74 CALM      30.00S
WICHITA MCCONL PTSUNNY   84  73  70 S3        30.00R
WINFIELD       MOSUNNY   87  74  64 VRB5      29.99S HX  95
$$

KSZ007>012-019>026-033>040-048>060-102>105-271800-
NORTHEAST KANSAS

CITY           SKY/WX    TMP DP  RH WIND       PRES   REMARKS
CONCORDIA      CLOUDY    81  71  71 NE5       30.04R
EMPORIA        MOSUNNY   84  71  65 VRB3      30.01R
LAWRENCE       SUNNY     86  69  56 CALM      30.00R
MANHATTAN      CLOUDY    85  71  63 SW3       30.01S
MARYSVILLE     CLOUDY    82  70  65 W3        30.03S
OLATHE IND     SUNNY     86  68  54 E5        30.00S
OLATHE EXE     SUNNY     84  68  58 E5        30.00R
SALINA         CLOUDY    87  72  60 VRB3      30.02R
TOPEKA BILLARD SUNNY     87  70  56 CALM      30.00R
TOPEKA FORBES  MOSUNNY   88  70  55 CALM      30.01R
$$




USA.gov is the U.S. government's official web portal to all federal, state and local government web resources and services.